SL-3 R/B (12904 NORAD) Tracking and Keplerian Element Data

This shows tracking and keplerian element data for the satellite.

Feedback or suggestion? Click here.




ElementValue
Catalog12904
NameSL-3 R/B
Epoch Orbit85402
Epoch Day12.90987962
Epoch Year2024
RAAN48.7055
Inclination81.1598
Eccentricity0.0023229
Argument of Perigee60.4163
Mean Anonmoly299.9373
Mean Motion15.10663424
Decay Rate5.391E-05
L11 12904U 81103B 24012.90987962 .00005391 00000+0 32244-3 0 9993
L22 12904 81.1598 48.7055 0023229 60.4163 299.9373 15.10663424854020



Live tracking and technical data element details for SL-3 R/B (NORAD 12904). SL-3 R/B can be tracked NOW for your location showing map with azimuth and elevation plus other details from your city location.







IsCatalogInMostPopularTable: catalog: 12904, numindb: 363
Update: records affected: 1



GetName: 12904 SL-3 R/B

Hit Count: updated at: Fri, 19 Apr 2024 12:22:02 GMT